Miscellaneous Local Product
Issued by NWS North Platte, NE

Home | Current Version | Previous Version | Text Only | Print | Product List | Glossary On
Versions: 1 2 3 4 5 6 7 8 9 10 11 12 13 14 15 16 17 18 19 20 21 22 23 24 25 26 27 28 29 30 31 32 33 34 35 36 37 38 39 40 41 42 43 44 45 46 47 48 49 50
831
AXUS43 KLBF 201310
MISLBF


WESTERN AND NORTH CENTRAL NEBRASKA HOURLY WEATHER ROUNDUP
NATIONAL WEATHER SERVICE NORTH PLATTE NE
800 AM CDT THU JUL 20 2017

NOTE: "FAIR" INDICATES FEW OR NO CLOUDS BELOW 12,000 FEET WITH NO
SIGNIFICANT WEATHER AND/OR OBSTRUCTIONS TO VISIBILITY.

NOTE: STATIONS NOT REPORTING VARIABLES SUCH AS SKY/WEATHER OR
PRESSURE ARE PROVIDED BY RAWS AND APRS NETWORKS AND ARE NOT UNDER
NATIONAL WEATHER SERVICE QUALITY CONTROL.

...OBSERVATIONS IN AND NEAR THE EASTERN PANHANDLE OF NEBRASKA...

CITY           SKY/WX    TMP DP  RH WIND       PRES   REMARKS
PINE RIDGE     PTSUNNY   67  67 100 CALM      30.11R
GORDON         FAIR      67  65  90 NW3       30.11R
CHADRON        MOSUNNY   68  65  90 VRB3      30.12R
ALLIANCE       MOSUNNY   67  64  90 N8        30.15R
SIDNEY         CLOUDY    70  62  76 NE3       30.17R
CRESCENT LAKE    N/A     69  65  86 S3          N/A
$$

...OBSERVATIONS IN NORTHERN NEBRASKA AND FAR SOUTHERN SOUTH DAKOTA...

CITY           SKY/WX    TMP DP  RH WIND       PRES   REMARKS
WINNER         FAIR      74  71  91 E7        30.02R
VALENTINE      PTSUNNY   75  65  70 N13G18    30.04R
THEDFORD       CLOUDY    71  68  91 CALM      30.08F
AINSWORTH      CLOUDY    71  68  89 N6        30.08R
O`NEILL        CLOUDY    74  70  87 E5        30.03R
ORD            CLOUDY    75  66  73 N6        30.01R
BROKEN BOW     CLOUDY    73  65  75 N6        30.05R
VALENTINE NWR    N/A     70  67  89 W6          N/A
HALSEY           N/A     70  66  86 NW6G14      N/A
BUTTE            N/A     73  71  93 E6          N/A
CHAMBERS         N/A     74  67  78 CALM        N/A
EWING            N/A     73  69  88 CALM        N/A
$$

...OBSERVATIONS IN SOUTHWEST NEBRASKA AND FAR NORTHEAST COLORADO...

CITY           SKY/WX    TMP DP  RH WIND       PRES   REMARKS
HOLYOKE        FAIR      73  64  73 N6        30.11R
IMPERIAL       CLOUDY    72  60  66 NE13      30.05F
OGALLALA       CLOUDY    71  64  78 NE8       30.07F
NORTH PLATTE   CLOUDY    73  64  73 N3        30.06S
MCCOOK         MOSUNNY   74  61  63 E8        30.02R
LEXINGTON      MOSUNNY   74  69  86 N3        30.03R
STAPLETON        N/A     70  65  83 CALM        N/A
GOTHENBURG       N/A     73  61  67 CALM        N/A
CALLAWAY         N/A     70  65  83 E3          N/A
$$

...OBSERVATIONS IN CENTRAL LINCOLN COUNTY AREA...

CITY           SKY/WX    TMP DP  RH WIND       PRES   REMARKS
N.P. AIRPORT   CLOUDY    73  64  73 N3        30.06S
N.P. DOWNTOWN    N/A     74  64  70 E6          N/A
N.P. SOUTHEAST   N/A     73  63  71 CALM        N/A
N.P. HILLCREST   N/A     73  63  70 E20         N/A
$$

...SOME OBSERVATIONS FROM AROUND THE REGION...

CITY           SKY/WX    TMP DP  RH WIND       PRES   REMARKS
DENVER         CLOUDY    69  56  62 N6        30.25S
LIMON          SUNNY     65  60  84 NW9       30.24R
ASPEN          CLOUDY    56  49  77 S5        30.40S
LARAMIE        CLOUDY    58  52  80 VRB3      30.35R
CASPER         CLOUDY    67  54  63 SW7       30.19R
CHEYENNE       CLOUDY    66  54  65 CALM      30.29R
SCOTTSBLUFF    CLOUDY    69  64  84 CALM      30.16R
GRAND ISLAND   CLOUDY    81  67  62 SE3       30.00R
OMAHA          PTSUNNY   84  70  62 S7        29.96R
SIOUX FALLS    CLOUDY    72  70  93 NE6       30.00S
PIERRE         CLOUDY    73  68  84 E5        30.00F
RAPID CITY     CLOUDY    70  65  84 E3        30.09R
BISMARCK       CLOUDY    66  62  87 CALM      30.04R
KANSAS CITY    MOSUNNY   80  73  79 SW13      30.03S
HILL CITY      CLOUDY    79  63  57 S7        30.01R
WICHITA        MOSUNNY   80  71  74 S12       30.06R
DODGE CITY     SUNNY     77  63  61 S14       30.08R
OKLAHOMA CITY  SUNNY     79  69  71 S13       30.10S
DALLAS         SUNNY     84  74  71 S13       30.10S HX  91
AMARILLO       SUNNY     71  62  73 S7        30.20R
$$




USA.gov is the U.S. government's official web portal to all federal, state and local government web resources and services.